Location: Perryvale
(54.4667°N, 113.3833°W)
Time: 00:04:04
(UTC+00:00)

Vanguard 1 Rocket - Pass Details

Date: 26 May 2024
Orbit: 649 x 4221 km, 34.3° (Epoch: 13 June)

Event Time Altitude Azimuth Distance (km) Brightness Sun altitude
Rises 13:43:20 0° 198° (SSW) 8,454 12.1 19.0°
Reaches altitude 10° 13:51:52 10° 185° (S) 7,328 11.9 20.2°
Maximum altitude 14:06:46 21° 148° (SSE) 5,724 12.0 22.3°
Drops below altitude 10° 14:18:16 10° 108° (ESE) 5,610 12.8 24.0°
Sets 14:23:21 0° 94° (E) 6,060 13.0 24.8°
